星链-2377 (STARLINK-2377 )

导读 | 星芒AI

STARLINK-2377 是 SpaceX Starlink 卫星互联网项目中的第 2377 颗卫星,属于低地球轨道(LEO)卫星群。该卫星由 SpaceX 设计和发射,旨在为全球用户提供高速、低延迟的互联网服务。它运行在约 550 公里的轨道高度,配备先进通信设备,支持宽带数据传输。STARLINK-2377 与其他 Starlink 卫星协同工作,扩大覆盖范围,提升网络性能,尤其在偏远和网络基础设施薄弱地区发挥重要作用。

基本信息
目录编号:
47797
目录名称:
STARLINK-2377
国际标识:
2021-018L
轨道中心:
EARTH
卫星名称:
星链-2377
卫星全名:
星链-2377 (STARLINK-2377 )
卫星状态:
在轨 (已飞行1741 天)
发射日期:
2021-03-11 UTC
国别 :
美国 (US)
星等 :
--
轨道信息
数据来源 国际轨道数据
星历时间: 2025-12-16T11:56:16+0800
19小时前
查看轨道信息
半长轴: 6925.362km
偏心率: 0.0001389
轨道倾角: 53.055°
近地点辐角 87.538°
升交点赤经 271.581°
平近点角 272.577°
近地点: 546.265km
远地点: 548.189km
周期: 95.592分钟
每日圈数: 15.063958
详细信息
固有亮度:
5
最大亮度:
2.5
卫星平台:
Starlink V1.0
覆盖范围:
全球
运营商:
太空探索技术公司
运营商所在国:
美国
制造商(研发单位):
太空探索技术公司
制造商所在国:
美国
使用方式:
暂无
卫星简介
星链(Starlink)计划是由太空探索技术公司(SpaceX)提出的一个巨型低轨卫星互联网星座项目,计划在2019年至2024年间在太空搭建由约1.2万颗卫星组成的“星链”网络,其中1584颗将部署在地球上空550千米处的近地轨道,并从2020年开始工作。该卫星仍在工作。
2D轨道图
3D轨道图
轨道高度分析图
轨道倾角分析图
轨道综合分析图
查看轨道综合分析图